Wetterstats.de || Aktuelle Messwerte || Aktuelle Wetterkarten NEU! || Radar / Satellit NEU! || Wetterarchiv || Langzeitwerte NEU! || Klim. Kenntage || Met. Ereignisse || Agrarwerte || Echtzeitwerte

Monatsübersicht für November 2020 Diagramm
 
Wetter Information zur Wetteranzeige
Zeitraffer
Tageslänge (hh:mm)
Höchsttemperatur in °C
Uhrzeit
Tiefsttemperatur in °C
Uhrzeit
Luftfeuchte (max., in %)
Uhrzeit
Luftfeuchte (min., in %)
Uhrzeit
Luftdruck (max., in hPa)
Uhrzeit
Luftdruck (min., in hPa)
Uhrzeit
Luftdruck (Ø, in hPa)
Regenrate (max, mm/h)
Uhrzeit
Niederschlag in mm
Verdunstung in mm
Solar in W/m² (Ø)
Solar in W/m² (max.)
UV-Index (max.)
Sonnenscheindauer (hh:mm)
Windrichtung (Ø)
Windstärke (Ø in km/h)
Windstärke (Ø in bft)
Windböe (max., in km/h)
Uhrzeit
Windböe (max., in bft)
Uhrzeit
Taupunkt (max., in °C)
Uhrzeit
Taupunkt (min., in °C)
Uhrzeit
Windchill (min., in °C)
Uhrzeit
Gewitterindex (max.)
Uhrzeit
Waldbrandindex (max.)
Uhrzeit
Graslandfeuerindex (max.)
Uhrzeit
Staubsturm-Index (max.)
Uhrzeit
01
Zeitraffer
09:37
14.1
21:30 Uhr
10.7
07:50 Uhr

96
08:30 Uhr
90
21:05 Uhr
1017.3
00:00 Uhr

1010.6
21:25 Uhr
1013.9
1,200
08:10 Uhr
1,600
0.330
68
254
14:10 Uhr
0.7
13:00 Uhr

00:31:00
5,1
1
19,3
14:25 Uhr

3
12.7
23:05 Uhr
9.9
06:30 Uhr
9.8
00:25 Uhr
5
00:00 Uhr
0.0
00:00 Uhr
0.0
00:00 Uhr
0.0
00:00 Uhr
02
Zeitraffer
09:33
19.9
13:35 Uhr
13.5
00:00 Uhr

96
08:10 Uhr
77
21:15 Uhr
1013.1
23:45 Uhr

1008.5
14:40 Uhr
1009.7
10,600
07:40 Uhr
5,400
0.940
126
395
12:05 Uhr
1.3
12:05 Uhr

02:36:00
8,1
2
35,4
23:20 Uhr

5
16.9
13:30 Uhr
12.7
00:00 Uhr
12.1
07:35 Uhr
9
17:10 Uhr
0.0
00:00 Uhr
0.0
00:00 Uhr
0.0
00:00 Uhr
03
Zeitraffer
09:29
15.9
00:40 Uhr
7.7
23:00 Uhr

94
23:15 Uhr
62
14:40 Uhr
1023.2
23:10 Uhr

1013.0
00:00 Uhr
1020.3
0,000
00:00 Uhr
0,200
1.219
235
485
10:50 Uhr
1.3
10:50 Uhr

05:41:00
4,2
1
37,0
02:55 Uhr

5
13.9
00:00 Uhr
5.9
14:40 Uhr
6.9
10:45 Uhr
7
00:00 Uhr
0.0
00:00 Uhr
0.0
00:00 Uhr
0.0
00:00 Uhr
04
Zeitraffer
09:25
11.1
13:25 Uhr
4.1
22:10 Uhr

95
22:20 Uhr
72
12:15 Uhr
1035.0
23:35 Uhr

1023.1
00:00 Uhr
1028.9
0,000
00:00 Uhr
0,000
1.270
217
455
11:20 Uhr
1.3
11:45 Uhr

06:47:00
5,3
1
37,0
12:15 Uhr

5
7.2
00:00 Uhr
3.1
22:10 Uhr
3.3
09:10 Uhr
0
00:00 Uhr
0.0
00:00 Uhr
0.0
00:00 Uhr
0.0
00:00 Uhr
05
Zeitraffer
09:21
10.9
12:55 Uhr
2.7
06:55 Uhr

96
02:40 Uhr
76
15:45 Uhr
1036.9
08:55 Uhr

1033.5
23:05 Uhr
1035.1
0,000
00:00 Uhr
0,000
1.067
195
420
11:55 Uhr
1.2
11:45 Uhr

05:22:00
5,6
1
27,4
12:30 Uhr

4
7.3
12:55 Uhr
2.1
06:55 Uhr
2.7
06:55 Uhr
0
00:00 Uhr
0.0
00:00 Uhr
0.0
00:00 Uhr
0.0
00:00 Uhr
06
Zeitraffer
09:19
11.0
13:40 Uhr
8.5
23:55 Uhr

95
21:35 Uhr
85
00:00 Uhr
1034.1
10:00 Uhr

1032.3
23:40 Uhr
1033.2
0,000
00:00 Uhr
0,000
0.330
40
69
10:00 Uhr
0.0
00:00 Uhr

00:00:00
5,9
1
25,7
01:40 Uhr

4
9.0
12:20 Uhr
6.6
00:00 Uhr
3.3
01:20 Uhr
0
00:00 Uhr
0.0
00:00 Uhr
0.0
00:00 Uhr
0.0
00:00 Uhr
07
Zeitraffer
09:15
12.9
14:05 Uhr
0.6
23:55 Uhr

96
00:10 Uhr
65
14:05 Uhr
1032.3
00:00 Uhr

1024.7
23:50 Uhr
1028.3
0,000
00:00 Uhr
0,000
0.787
175
441
11:00 Uhr
1.2
11:15 Uhr

04:48:00
3,5
1
19,3
08:00 Uhr

3
7.8
00:10 Uhr
-0.2
23:55 Uhr
0.6
23:55 Uhr
0
00:00 Uhr
0.0
00:00 Uhr
0.2
14:40 Uhr
0.0
00:00 Uhr
08
Zeitraffer
09:11
5.8
16:40 Uhr
-0.2
00:55 Uhr

97
05:10 Uhr
95
00:10 Uhr
1027.9
23:35 Uhr

1024.2
03:30 Uhr
1026.0
0,000
00:00 Uhr
0,200
0.229
64
133
10:55 Uhr
0.5
10:55 Uhr

00:00:00
2,8
1
17,7
20:45 Uhr

3
5.3
16:35 Uhr
-0.8
00:45 Uhr
-0.2
00:55 Uhr
0
00:00 Uhr
0.0
00:00 Uhr
0.0
00:00 Uhr
0.0
00:00 Uhr
09
Zeitraffer
09:08
5.8
19:00 Uhr
5.3
13:50 Uhr

97
00:00 Uhr
92
15:40 Uhr
1029.4
23:05 Uhr

1027.5
05:15 Uhr
1028.4
0,000
00:00 Uhr
0,000
0.152
32
61
11:45 Uhr
0.0
00:00 Uhr

00:00:00
5,9
1
20,9
14:50 Uhr

4
5.2
02:25 Uhr
4.1
15:40 Uhr
1.1
02:45 Uhr
0
00:00 Uhr
0.0
00:00 Uhr
0.0
00:00 Uhr
0.0
00:00 Uhr
10
Zeitraffer
09:04
5.7
06:15 Uhr
4.8
18:00 Uhr

95
04:35 Uhr
92
10:50 Uhr
1030.5
11:05 Uhr

1029.2
03:35 Uhr
1029.9
0,000
00:00 Uhr
0,000
0.127
24
44
10:50 Uhr
0.0
00:00 Uhr

00:00:00
6,2
1
20,9
01:50 Uhr

4
5.0
08:45 Uhr
3.8
18:00 Uhr
-0.8
10:25 Uhr
0
00:00 Uhr
0.0
00:00 Uhr
0.0
00:00 Uhr
0.0
00:00 Uhr
11
Zeitraffer
09:01
6.5
12:50 Uhr
5.2
07:10 Uhr

94
07:00 Uhr
83
13:30 Uhr
1029.8
00:00 Uhr

1023.8
23:55 Uhr
1027.1
0,000
00:00 Uhr
0,000
0.152
30
53
10:45 Uhr
0.0
00:00 Uhr

00:00:00
3,0
1
17,7
03:30 Uhr

3
4.8
11:05 Uhr
3.3
16:50 Uhr
2.0
03:25 Uhr
0
00:00 Uhr
0.0
00:00 Uhr
0.0
00:00 Uhr
0.0
00:00 Uhr
12
Zeitraffer
08:58
10.4
14:00 Uhr
4.9
23:50 Uhr

96
05:50 Uhr
76
14:10 Uhr
1023.8
00:00 Uhr

1019.3
14:00 Uhr
1020.9
0,000
00:00 Uhr
0,000
0.533
92
303
13:35 Uhr
0.6
11:30 Uhr

01:39:00
3,9
1
22,5
12:35 Uhr

4
6.7
13:55 Uhr
3.5
23:30 Uhr
2.9
11:05 Uhr
0
00:00 Uhr
0.0
00:00 Uhr
0.0
00:00 Uhr
0.0
00:00 Uhr
13
Zeitraffer
08:54
11.5
13:40 Uhr
2.4
22:30 Uhr

96
06:30 Uhr
78
14:10 Uhr
1020.4
08:50 Uhr

1017.7
19:00 Uhr
1019.1
0,000
00:00 Uhr
0,000
0.483
116
322
12:55 Uhr
0.8
12:50 Uhr

03:30:00
1,3
0
14,5
14:35 Uhr

3
8.4
13:40 Uhr
1.5
22:55 Uhr
2.4
22:30 Uhr
0
00:00 Uhr
0.0
00:00 Uhr
0.4
15:05 Uhr
0.0
00:00 Uhr
14
Zeitraffer
08:51
13.7
14:50 Uhr
3.3
00:00 Uhr

97
04:55 Uhr
88
13:45 Uhr
1018.8
10:35 Uhr

1016.2
23:10 Uhr
1017.9
0,000
00:00 Uhr
0,200
0.305
71
215
12:20 Uhr
0.7
12:20 Uhr

00:30:00
1,1
0
12,9
11:30 Uhr

2
11.8
14:55 Uhr
2.6
00:00 Uhr
3.3
00:00 Uhr
3
16:50 Uhr
0.0
00:00 Uhr
0.2
15:35 Uhr
0.0
00:00 Uhr
15
Zeitraffer
08:47
14.3
12:55 Uhr
7.4
23:45 Uhr

95
00:20 Uhr
69
12:55 Uhr
1016.3
00:00 Uhr

1008.4
23:50 Uhr
1013.0
0,000
00:00 Uhr
0,000
0.965
123
371
11:15 Uhr
0.9
11:55 Uhr

03:05:00
6,8
1
30,6
12:55 Uhr

5
9.2
01:05 Uhr
5.0
21:50 Uhr
1.3
22:00 Uhr
2
00:40 Uhr
0.0
00:00 Uhr
0.6
14:05 Uhr
0.0
00:00 Uhr


 
Wetter Information zur Wetteranzeige
Zeitraffer
Tageslänge (hh:mm)
Höchsttemperatur in °C
Uhrzeit
Tiefsttemperatur in °C
Uhrzeit
Luftfeuchte (max., in %)
Uhrzeit
Luftfeuchte (min., in %)
Uhrzeit
Luftdruck (max., in hPa)
Uhrzeit
Luftdruck (min., in hPa)
Uhrzeit
Luftdruck (Ø, in hPa)
Regenrate (max, mm/h)
Uhrzeit
Niederschlag in mm
Verdunstung in mm
Solar in W/m² (Ø)
Solar in W/m² (max.)
UV-Index (max.)
Sonnenscheindauer (hh:mm)
Windrichtung (Ø)
Windstärke (Ø in km/h)
Windstärke (Ø in bft)
Windböe (max., in km/h)
Uhrzeit
Windböe (max., in bft)
Uhrzeit
Taupunkt (max., in °C)
Uhrzeit
Taupunkt (min., in °C)
Uhrzeit
Windchill (min., in °C)
Uhrzeit
Gewitterindex (max.)
Uhrzeit
Waldbrandindex (max.)
Uhrzeit
Graslandfeuerindex (max.)
Uhrzeit
Staubsturm-Index (max.)
Uhrzeit
16
Zeitraffer
08:45
12.5
12:25 Uhr
7.1
01:45 Uhr

95
08:40 Uhr
74
13:20 Uhr
1019.2
23:55 Uhr

1007.9
02:10 Uhr
1012.4
0,800
05:15 Uhr
0,800
0.762
111
353
12:25 Uhr
0.9
11:35 Uhr

02:07:00
5,1
1
27,4
12:30 Uhr

4
9.2
11:55 Uhr
4.7
02:00 Uhr
2.6
00:20 Uhr
0
00:00 Uhr
0.0
00:00 Uhr
0.4
14:05 Uhr
0.0
00:00 Uhr
17
Zeitraffer
08:42
11.2
22:10 Uhr
8.2
07:45 Uhr

95
16:55 Uhr
79
11:25 Uhr
1024.7
23:50 Uhr

1019.2
00:00 Uhr
1022.2
0,000
00:00 Uhr
0,600
0.483
59
128
11:20 Uhr
0.5
11:05 Uhr

00:54:00
6,9
1
27,4
12:25 Uhr

4
10.1
19:00 Uhr
6.5
07:45 Uhr
5.2
09:05 Uhr
2
16:50 Uhr
0.0
00:00 Uhr
0.0
00:00 Uhr
0.0
00:00 Uhr
18
Zeitraffer
08:38
12.6
12:05 Uhr
8.8
23:55 Uhr

90
00:00 Uhr
74
14:10 Uhr
1025.9
07:50 Uhr

1015.6
23:45 Uhr
1023.0
0,000
00:00 Uhr
0,000
0.686
56
103
11:25 Uhr
0.5
11:25 Uhr

00:00:00
6,7
1
25,7
15:35 Uhr

4
9.8
00:10 Uhr
6.3
23:35 Uhr
4.6
23:20 Uhr
2
00:00 Uhr
0.0
00:00 Uhr
0.2
13:10 Uhr
0.0
00:00 Uhr
19
Zeitraffer
08:35
12.1
09:05 Uhr
4.1
23:50 Uhr

88
09:55 Uhr
68
14:15 Uhr
1023.5
23:55 Uhr

1011.8
06:25 Uhr
1015.2
1,800
09:55 Uhr
0,600
0.940
65
395
13:00 Uhr
0.8
12:45 Uhr

00:43:00
10,6
2
46,7
16:50 Uhr

6
9.2
09:45 Uhr
0.5
21:50 Uhr
-0.5
18:05 Uhr
0
00:00 Uhr
0.0
00:00 Uhr
0.3
06:10 Uhr
0.0
00:00 Uhr
20
Zeitraffer
08:33
6.2
15:10 Uhr
-2.4
23:30 Uhr

95
22:55 Uhr
74
14:25 Uhr
1034.3
23:40 Uhr

1023.6
00:00 Uhr
1029.5
0,000
00:00 Uhr
0,000
0.762
159
411
12:35 Uhr
0.8
11:35 Uhr

05:37:00
5,6
1
25,7
12:00 Uhr

4
2.4
12:20 Uhr
-3.2
23:10 Uhr
-2.7
03:05 Uhr
0
00:00 Uhr
0.0
00:00 Uhr
0.0
00:00 Uhr
0.0
00:00 Uhr
21
Zeitraffer
08:30
7.2
22:10 Uhr
-3.2
01:35 Uhr

96
03:25 Uhr
70
18:15 Uhr
1034.6
00:50 Uhr

1023.5
23:45 Uhr
1029.5
0,000
00:00 Uhr
0,200
0.711
91
279
09:40 Uhr
0.5
10:10 Uhr

01:44:00
7,4
2
33,8
13:00 Uhr

5
2.9
23:05 Uhr
-4.0
01:35 Uhr
-4.4
09:10 Uhr
0
00:00 Uhr
0.0
00:00 Uhr
0.5
19:15 Uhr
0.0
00:00 Uhr
22
Zeitraffer
08:27
10.6
13:40 Uhr
5.4
23:55 Uhr

94
21:40 Uhr
75
00:00 Uhr
1023.5
00:00 Uhr

1019.7
13:25 Uhr
1021.7
0,000
00:00 Uhr
0,000
0.533
52
188
13:20 Uhr
0.5
11:15 Uhr

00:37:00
8,0
2
40,2
13:30 Uhr

5
7.2
13:00 Uhr
3.1
00:00 Uhr
0.1
07:10 Uhr
0
00:00 Uhr
0.0
00:00 Uhr
0.3
13:40 Uhr
0.0
00:00 Uhr
23
Zeitraffer
08:25
8.6
13:55 Uhr
4.1
23:50 Uhr

95
01:10 Uhr
77
14:05 Uhr
1028.5
22:55 Uhr

1021.5
03:25 Uhr
1024.3
0,000
00:00 Uhr
0,000
0.737
153
397
12:30 Uhr
0.7
11:00 Uhr

04:57:00
6,7
1
32,2
09:35 Uhr

5
5.0
14:00 Uhr
2.7
23:35 Uhr
-2.8
09:35 Uhr
0
00:00 Uhr
0.0
00:00 Uhr
1.0
14:10 Uhr
0.0
00:00 Uhr
24
Zeitraffer
08:22
7.9
14:50 Uhr
-0.4
23:50 Uhr

95
03:15 Uhr
77
14:55 Uhr
1028.2
00:00 Uhr

1022.1
23:55 Uhr
1025.0
0,000
00:00 Uhr
0,000
0.432
109
283
10:55 Uhr
0.7
11:05 Uhr

03:39:00
2,7
1
16,1
14:50 Uhr

3
4.3
14:50 Uhr
-1.2
23:45 Uhr
-0.4
23:50 Uhr
0
00:00 Uhr
0.0
00:00 Uhr
0.9
13:55 Uhr
0.0
00:00 Uhr
25
Zeitraffer
08:20
1.8
18:10 Uhr
-2.0
05:30 Uhr

97
18:25 Uhr
94
00:00 Uhr
1021.9
00:00 Uhr

1019.4
14:10 Uhr
1020.2
0,000
00:00 Uhr
0,200
0.076
29
49
10:40 Uhr
0.0
00:00 Uhr

00:00:00
3,0
1
19,3
10:40 Uhr

3
1.4
18:25 Uhr
-2.7
05:30 Uhr
-2.5
07:50 Uhr
0
00:00 Uhr
0.0
00:00 Uhr
0.1
00:00 Uhr
0.0
00:00 Uhr
26
Zeitraffer
08:17
7.3
19:55 Uhr
-2.6
03:35 Uhr

97
07:30 Uhr
96
00:00 Uhr
1021.2
23:35 Uhr

1018.8
13:30 Uhr
1019.8
2,400
14:15 Uhr
0,600
0.076
28
88
11:00 Uhr
0.0
00:00 Uhr

00:09:00
2,5
1
16,1
16:35 Uhr

3
6.8
19:30 Uhr
-3.2
04:05 Uhr
-2.6
03:35 Uhr
0
00:00 Uhr
0.0
00:00 Uhr
0.1
11:55 Uhr
0.0
00:00 Uhr
27
Zeitraffer
08:14
6.5
00:00 Uhr
3.8
23:25 Uhr

97
00:00 Uhr
87
22:55 Uhr
1023.9
23:10 Uhr

1020.6
04:30 Uhr
1022.3
0,000
00:00 Uhr
0,000
0.178
60
142
11:10 Uhr
0.0
00:00 Uhr

00:00:00
2,0
0
12,9
00:35 Uhr

2
6.1
00:00 Uhr
1.9
22:55 Uhr
3.8
23:25 Uhr
0
00:00 Uhr
0.0
00:00 Uhr
0.0
00:00 Uhr
0.0
00:00 Uhr
28
Zeitraffer
08:12
6.1
12:00 Uhr
-2.6
23:05 Uhr

93
22:35 Uhr
70
12:50 Uhr
1027.4
23:10 Uhr

1023.4
05:10 Uhr
1025.2
0,000
00:00 Uhr
0,000
0.254
65
308
11:20 Uhr
0.7
11:20 Uhr

00:33:00
1,4
0
14,5
13:00 Uhr

3
2.5
06:10 Uhr
-3.6
22:50 Uhr
-2.6
23:05 Uhr
0
00:00 Uhr
0.0
00:00 Uhr
0.5
14:05 Uhr
0.0
00:00 Uhr
29
Zeitraffer
08:09
6.1
13:30 Uhr
-2.5
00:00 Uhr

96
07:05 Uhr
76
13:40 Uhr
1027.3
00:20 Uhr

1025.4
14:15 Uhr
1026.2
0,000
00:00 Uhr
0,200
0.533
141
368
12:25 Uhr
0.7
11:25 Uhr

03:51:00
3,9
1
25,7
13:10 Uhr

4
3.4
11:25 Uhr
-3.5
00:00 Uhr
-2.5
00:00 Uhr
0
00:00 Uhr
0.0
00:00 Uhr
0.2
14:05 Uhr
0.0
00:00 Uhr
30
Zeitraffer
08:07
2.1
13:40 Uhr
-2.8
02:05 Uhr

96
05:45 Uhr
84
13:05 Uhr
1026.5
00:00 Uhr

1016.0
23:50 Uhr
1023.1
0,000
00:00 Uhr
0,000
0.076
31
69
12:20 Uhr
0.0
00:00 Uhr

00:00:00
2,0
0
9,7
13:10 Uhr

2
0.0
10:30 Uhr
-3.5
02:05 Uhr
-2.8
02:05 Uhr
0
00:00 Uhr
0.0
00:00 Uhr
0.9
12:35 Uhr
0.0
00:00 Uhr
Stationsstandorte || Wetterblog || Wissenswertes || Downloads || Seitenhistorie || Partner || Impressum / Datenschutz